Weather History for KTOP - March, 2013

Change the Weather History Date:

Monday, March 11, 2013

  Actual Average Record
Temperature  
Mean Temperature 33 °F 43 °F  
Max Temperature 41 °F 55 °F 85 °F (1972)
Min Temperature 24 °F 32 °F -6 °F (1948)
Degree Days  
Heating Degree Days 32 22  
Month to date heating degree days 294 262  
Since 1 July heating degree days 3851 4229  
Cooling Degree Days 0 0  
Month to date cooling degree days 0 0  
Year to date cooling degree days 0 0  
Moisture  
Dew Point 19 °F    
Average Humidity 55    
Maximum Humidity 75    
Minimum Humidity 34    
Precipitation  
Precipitation 0.00 in 0.07 in 1.63 in (1899)
Month to date precipitation 1.28 0.73  
Year to date precipitation 3.72 2.91  
Snow  
Snow 0.00 in 0.10 in 4.00 in (1899)
Month to date snowfall T 0.8  
Year to date snowfall 16.0 10.2  
Since 1 July snowfall 21.4 16.7  
Snow Depth 0.00 in    
Sea Level Pressure  
Sea Level Pressure 29.99 in    
Wind  
Wind Speed 9 mph (WNW)    
Max Wind Speed 18 mph    
Max Gust Speed 26 mph    
Visibility 10 miles    
Events      
T = Trace of Precipitation, MM = Missing Value Source: NWS Daily Summary

Daily Weather History Graph

Daily Weather History Graph

Search for Another Location

Airport or City:

Trip Planner

Search our weather history database for the weather conditions in past years. The results will help you decide how hot, cold, wet, or windy it might be!

Date:

Astronomy

Mar. 11, 2013 Rise Set
Actual Time 7:39 AM CDT 7:25 PM CDT
Civil Twilight 7:12 AM CDT 7:52 PM CDT
Nautical Twilight 6:42 AM CDT 8:23 PM CDT
Astronomical Twilight 6:10 AM CDT 8:54 PM CDT
Moon 7:14 AM CDT (3/11) 7:38 PM CDT (3/11)
Length of Visible Light 12h 39m
Length of Day
11h 46m
Waning Crescent, 0% of the Moon is Illuminated
Mar 11
Waning Crescent
Mar 11
New
Mar 19
First Quarter
Mar 27
Full
Apr 2
Last Quarter

Hourly Weather History & Observations

Time (CDT) Temp. Windchill Dew Point Humidity Pressure Visibility Wind Dir Wind Speed Gust Speed Precip Events Conditions
12:53 AM 27.0 °F 15.2 °F 19.9 °F 75% 29.98 in 10.0 mi WNW 15.0 mph - N/A   Overcast
1:53 AM 27.0 °F 15.6 °F 19.9 °F 75% 29.97 in 10.0 mi WNW 13.8 mph 20.7 mph N/A   Overcast
2:53 AM 27.0 °F 16.7 °F 19.0 °F 72% 29.96 in 10.0 mi WNW 11.5 mph - N/A   Overcast
3:53 AM 26.1 °F 13.6 °F 19.0 °F 75% 29.94 in 10.0 mi WNW 16.1 mph 20.7 mph N/A   Overcast
4:53 AM 26.1 °F 16.2 °F 19.0 °F 75% 29.94 in 10.0 mi WNW 10.4 mph - N/A   Overcast
5:53 AM 26.1 °F 16.2 °F 19.0 °F 75% 29.95 in 10.0 mi WNW 10.4 mph 18.4 mph N/A   Overcast
6:53 AM 26.1 °F 16.8 °F 18.0 °F 71% 29.97 in 10.0 mi WNW 9.2 mph 19.6 mph N/A   Overcast
7:53 AM 25.0 °F 14.2 °F 18.0 °F 75% 29.99 in 10.0 mi WNW 11.5 mph - N/A   Overcast
8:53 AM 25.0 °F 16.3 °F 18.0 °F 75% 30.00 in 10.0 mi WNW 8.1 mph - N/A   Overcast
9:53 AM 24.1 °F 11.5 °F 17.1 °F 75% 30.01 in 9.0 mi West 15.0 mph 24.2 mph N/A   Overcast
10:53 AM 25.0 °F 13.6 °F 18.0 °F 75% 30.01 in 10.0 mi WNW 12.7 mph - N/A   Overcast
11:53 AM 27.0 °F 19.5 °F 18.0 °F 69% 30.01 in 10.0 mi Variable 6.9 mph - N/A   Overcast
12:53 PM 28.0 °F 18.1 °F 18.0 °F 66% 30.02 in 10.0 mi West 11.5 mph - N/A   Overcast
1:34 PM 33.1 °F 24.4 °F 19.9 °F 59% 29.98 in 10.0 mi WNW 11.5 mph - N/A   Scattered Clouds
1:53 PM 32.0 °F 24.8 °F 19.9 °F 61% 30.00 in 10.0 mi West 8.1 mph - N/A   Clear
2:53 PM 36.0 °F 28.5 °F 19.0 °F 50% 29.97 in 10.0 mi West 10.4 mph - N/A   Clear
3:53 PM 39.0 °F 32.3 °F 19.0 °F 45% 29.96 in 10.0 mi WNW 10.4 mph - N/A   Clear
4:53 PM 41.0 °F 33.5 °F 18.0 °F 40% 29.97 in 10.0 mi WNW 13.8 mph - N/A   Clear
5:53 PM 39.2 °F 33.0 °F 17.6 °F 42% 29.94 in 10.0 mi West 9.2 mph - N/A   Clear
6:53 PM 41.0 °F 35.2 °F 15.1 °F 35% 29.98 in 10.0 mi West 9.2 mph - N/A   Clear
7:53 PM 37.9 °F 33.5 °F 17.1 °F 43% 29.99 in 10.0 mi West 5.8 mph - N/A   Clear
8:53 PM 36.0 °F - 19.9 °F 52% 30.00 in 10.0 mi Calm Calm - N/A   Clear
9:53 PM 33.1 °F - 21.9 °F 64% 30.01 in 10.0 mi Calm Calm - N/A   Clear
10:53 PM 32.0 °F 28.7 °F 23.0 °F 69% 30.04 in 10.0 mi South 3.5 mph - N/A   Clear
11:53 PM 33.1 °F - 25.0 °F 72% 30.05 in 10.0 mi Calm Calm - N/A   Clear